Location: Borojevi?i
(45.0486°N, 16.2297°E)
Time: 05:33:17
(UTC+00:00)

Cosmos 2227 Rocket - Pass Details

Date: 08 August 2020
Orbit: 840 x 844 km, 71.0° (Epoch: 19 September)

Event Time Altitude Azimuth Distance (km) Brightness Sun altitude
Exits shadow 23:22:10 25° 93° (E) 1,641 3.7 -29.0°
Drops below altitude 10° 23:26:10 10° 49° (NE) 2,470 5.2 -28.9°
Sets 23:29:00 0° 37° (NE) 3,410 6.2 -28.8°
